Simultaneous Nadir Overpasses (SNOs) Predictions

Prediction of SNOs between GOES-15 and METOP-B Satellite Orbit:

Table of predicted SNOs for the next 14.0 days since TLE Epoch: 11/18/2023
Index Date Time (GOES-15) GOES-15 Lat,Lon METOP-B Lat,Lon Distance(km) Time Diff (sec)
1 11/18/2023 17:28:08 0.24, 61.70 -0.08, 60.18 173.25 80
2 11/19/2023 17:04:47 0.24, 61.68 1.02, 65.18 398.46 80
3 11/21/2023 05:23:37 -0.23, 61.54 -0.01, 60.61 106.57 80
4 11/22/2023 05:05:38 -0.23, 61.51 -1.17, 65.60 465.88 80
5 11/23/2023 17:24:36 0.22, 61.56 0.13, 61.00 62.81 80
6 11/26/2023 05:21:14 -0.22, 61.42 -0.23, 61.44 2.61 12
7 11/28/2023 17:18:24 0.21, 61.44 0.31, 61.84 45.64 80
8 11/30/2023 05:37:14 -0.19, 61.34 0.69, 57.27 462.73 80
9 12/01/2023 05:19:14 -0.20, 61.31 -0.43, 62.27 108.99 80
